Starlink 30508

operational
NORAD ID: 57979 Int'l Des: 2023-151 Owner: SPXS Country: US Constellation: starlink
LEOCIRCULAR

Über Starlink 30508

Beschreibung wird geladen...

Live-Position

3D-Globus wird geladen...

Nächste Überflüge

Höhenverlauf

Altitude vs Time

uPlot chart will show altitude changes over time

Zweizeiliger Elementsatz

1 57979U 23151R 25303.50134409 .00001008 00000-0 89697-4 0 9990
2 57979 43.0043 339.4436 0001169 269.0663 91.0046 15.02537877115994
Epoch: 30. Okt. 2025 • Age: 19 hours

Aktueller Status

Höhe 559.1 km
Geschwindigkeit 7.59 km/s
Subsatellitenpunkt 23.20°N, 147.58°W
Startdatum 30. Sept. 2023
Alter 2 years
Typ internet

Technische Details

Klassifizierung Payload
Masse 730.00 kg
Trockenmasse 700.00 kg
Gesamtmasse 730.00 kg
Länge 0.30 m
Durchmesser 4.10 m
Spannweite 29.00 m
Form Box + pan
Hersteller SPXS
Bus-Typ Starlink V2M
Phasenstatus In Orbit
Besitzer/Staat SPXS/US

Große Konstellationen

Loading constellations...